GEFSSE_con_prob3kmehi_276.txt.gz
EHI
0 2 4 5 3 1 0 1 0 0 0 0 0 0 0 0 0 0 0 0 0 1 0 1 2 2 1 0 0 0 0 1 1 1 2 3 3 4 5 6 3 1 0
0 1 4 4 3 1 1 1 1 0 0 0 0 0 0 0 0 0 0 0 0 1 0 0 1 1 0 0 0 0 0 0 1 1 2 3 3 3 4 4 3 1 0
0 1 3 3 2 1 1 2 2 1 0 0 0 0 0 0 0 0 0 0 0 0 0 0 0 0 0 0 0 0 1 1 1 2 3 3 3 3 4 3 2 1 0
0 1 2 2 1 1 2 3 2 1 0 0 0 0 0 0 1 1 0 0 0 0 0 0 0 0 0 0 0 1 1 1 1 2 2 3 3 4 4 3 1 1 1
0 0 1 1 1 1 2 2 1 0 0 0 0 0 0 0 1 1 0 0 0 0 0 0 0 0 0 0 0 1 1 1 0 1 1 2 3 4 3 1 1 1 2
0 0 0 1 1 1 1 1 0 0 0 0 0 0 0 0 1 1 0 0 0 0 0 0 0 0 0 0 0 0 0 0 0 0 0 1 2 3 1 0 0 2 3
0 0 0 1 2 2 1 0 0 0 0 0 0 0 0 0 0 0 0 0 0 0 0 0 0 0 0 0 0 0 0 0 0 0 0 1 2 2 1 0 0 1 2
0 0 0 1 3 4 2 1 1 1 1 1 2 1 1 1 1 1 0 0 0 0 0 0 0 0 0 0 1 1 1 0 0 0 0 1 2 2 1 1 1 1 1
0 0 0 0 2 3 3 3 2 2 2 3 3 3 3 3 2 2 1 1 0 0 1 0 0 0 0 0 1 2 1 0 0 0 0 0 1 2 2 2 2 2 1
0 0 0 0 0 1 2 2 2 3 3 3 3 3 3 3 2 2 2 2 1 0 0 0 0 0 0 0 1 2 2 1 0 0 0 0 1 2 3 3 3 3 2
0 0 0 0 0 0 1 1 2 2 2 3 2 2 1 1 1 1 1 1 1 0 1 1 0 0 0 0 0 1 1 1 0 0 0 1 1 3 3 4 4 4 4
0 0 0 0 0 0 1 1 2 2 2 2 2 1 0 0 0 0 0 0 0 0 1 1 0 0 0 0 0 0 0 0 0 0 0 1 2 3 4 5 6 7 6
0 0 0 0 0 1 2 2 2 1 1 1 2 1 0 0 0 0 0 0 0 0 1 1 0 0 0 0 0 0 0 0 0 0 0 1 2 4 5 7 8 8 8
0 0 0 0 1 2 2 1 1 0 0 1 1 1 0 0 0 0 0 0 0 0 0 0 0 0 0 0 0 0 0 0 0 0 0 0 2 5 8 8 7 7 8
0 0 0 1 2 2 2 1 0 0 0 0 0 0 0 0 0 0 0 0 0 0 0 0 0 0 0 0 0 0 0 0 0 0 0 1 3 6 8 9 8 8 8
1 1 1 2 2 1 1 0 0 0 0 0 0 0 0 0 0 0 0 0 0 0 0 0 0 0 0 0 0 0 0 0 0 0 0 1 2 4 7 9 10 10 9
2 1 1 2 1 0 1 1 0 0 0 0 0 0 0 0 0 0 0 0 0 0 0 0 0 0 0 0 0 0 0 0 0 0 0 0 1 2 4 7 9 11 11
1 1 2 1 1 1 2 1 0 0 0 0 0 0 0 0 0 0 0 0 0 0 0 0 0 0 0 0 0 0 0 0 0 0 0 0 0 0 1 3 6 9 11
1 2 2 2 2 2 2 1 0 0 0 0 0 0 0 0 0 0 0 0 0 0 0 0 0 0 0 0 0 0 0 0 0 0 0 0 0 0 0 0 2 5 7
2 2 2 2 3 3 2 0 0 1 0 0 0 0 0 0 0 0 0 0 0 0 0 0 0 0 0 0 0 0 0 0 0 0 0 0 0 0 0 0 0 1 2
3 2 1 1 1 2 2 1 0 0 0 0 0 0 0 0 0 0 0 0 0 0 0 0 0 0 0 0 0 0 0 0 0 0 0 0 0 0 0 0 0 0 0
4 2 1 0 0 1 2 1 0 0 0 0 0 0 0 0 0 0 0 0 0 0 0 0 0 0 0 0 0 0 0 0 0 0 0 0 0 0 0 0 0 0 0
4 2 1 1 0 0 1 1 1 1 1 1 1 0 0 1 0 0 0 0 0 0 0 0 0 0 0 0 0 0 0 0 0 0 0 0 0 0 0 0 0 0 0
2 2 1 1 1 0 1 1 2 2 3 2 1 1 1 1 0 0 0 0 0 0 0 0 0 1 1 1 1 1 1 0 0 0 0 1 1 1 1 0 0 0 0
3 2 1 0 0 0 1 2 3 2 2 2 1 1 1 0 0 0 0 0 0 0 0 0 1 2 2 2 2 2 2 1 1 1 2 3 3 2 1 0 0 0 0
4 4 2 1 0 0 1 2 3 2 1 1 1 1 1 0 0 0 0 0 0 0 0 0 1 2 3 2 3 3 3 3 3 3 4 4 4 3 1 0 0 0 0

GEFSSE_con_prob3kmehi_282.txt.gz
EHI
3 3 2 1 0 0 1 2 1 0 0 1 3 2 1 0 0 0 0 0 0 0 0 0 1 0 0 0 0 0 0 0 0 0 0 1 1 2 3 4 3 2 2
1 2 2 1 0 0 1 1 1 0 1 2 3 2 1 0 0 0 0 0 0 0 0 0 1 0 0 0 0 0 0 0 0 0 0 1 1 1 3 4 3 2 2
0 1 1 1 0 0 1 1 0 0 1 2 2 2 1 0 0 0 0 0 0 1 0 0 0 0 0 0 0 0 0 0 0 0 0 0 0 0 1 2 2 1 1
0 0 0 0 0 0 0 0 0 0 1 1 1 1 0 0 0 0 0 0 0 0 0 0 0 0 0 0 0 0 0 0 0 0 0 0 0 0 0 1 1 1 1
0 0 1 1 0 0 0 0 0 0 0 0 0 0 0 0 0 0 0 0 0 0 0 0 0 1 0 0 0 0 0 0 0 0 0 0 1 1 1 0 0 0 0
0 1 2 1 1 1 1 1 0 0 0 0 0 0 0 1 1 1 0 0 0 0 0 0 0 0 0 0 0 0 0 0 0 0 0 0 1 2 2 0 0 0 0
0 1 1 1 1 2 2 2 1 0 0 0 0 0 1 1 1 1 1 0 0 0 0 0 0 0 0 0 0 0 0 0 0 0 0 0 1 2 2 1 0 0 0
0 0 0 0 1 2 3 3 1 0 0 0 0 0 1 1 1 1 0 0 1 1 1 0 0 1 1 1 1 1 1 1 1 1 1 1 2 4 3 2 1 1 0
0 0 0 0 1 2 3 4 3 1 0 0 0 0 0 1 1 1 0 0 1 1 1 0 1 2 2 2 2 2 1 1 2 2 2 2 4 4 4 3 3 2 1
0 1 1 1 0 1 2 4 4 3 1 1 1 1 1 1 2 1 1 1 1 1 1 1 2 3 3 4 4 3 2 2 3 3 3 4 5 4 3 3 3 3 3
1 2 2 2 1 1 2 2 3 3 2 3 3 3 2 2 2 1 0 1 1 0 0 1 2 3 3 4 5 4 3 3 3 3 3 4 5 4 3 3 4 4 4
1 2 3 4 3 3 2 2 1 1 2 3 4 4 3 2 1 0 0 0 1 0 0 0 1 3 3 4 4 4 3 3 3 3 3 4 5 4 4 5 6 6 6
1 2 3 5 5 5 3 1 0 0 1 2 3 3 3 2 0 0 0 0 0 0 0 0 1 2 3 3 3 3 3 3 3 3 4 4 4 4 4 6 8 8 8
1 2 3 5 6 6 3 1 0 0 0 1 2 3 3 1 0 0 0 0 0 0 0 0 1 2 3 3 3 3 3 3 3 3 3 4 3 2 2 4 7 9 10
2 3 4 4 4 4 3 1 1 1 0 0 2 3 2 1 0 0 0 0 0 0 0 1 1 2 3 4 4 4 4 4 4 3 2 3 3 1 0 2 5 7 8
4 4 5 3 2 2 3 2 2 1 0 0 1 2 1 0 0 0 0 0 0 0 1 2 2 3 3 4 4 5 4 4 4 3 2 3 2 1 0 1 4 5 5
5 6 5 2 0 1 3 3 2 0 0 0 0 1 1 0 0 0 0 0 0 0 1 2 3 3 4 3 2 3 4 4 4 3 3 4 3 1 1 1 2 3 3
9 8 5 2 0 1 4 4 3 1 0 0 0 0 0 0 0 1 1 0 0 0 1 2 3 3 2 1 0 1 2 3 3 3 3 4 3 2 1 2 1 1 1
10 8 6 3 2 2 3 3 3 2 1 1 1 1 1 1 1 2 2 1 0 0 0 2 4 3 2 1 0 0 1 1 2 3 3 4 3 2 1 2 2 1 1
9 8 6 5 4 3 2 2 4 3 3 2 3 4 4 3 2 2 2 1 0 0 0 1 4 4 3 3 1 0 0 0 1 2 3 3 3 1 1 3 4 3 2
8 9 9 7 5 4 3 3 3 3 3 3 3 5 6 5 4 4 3 2 1 1 1 2 3 4 3 3 1 0 0 0 1 1 2 3 2 1 1 3 5 3 2
9 10 12 11 8 5 5 3 3 2 2 1 1 3 4 6 7 7 6 4 2 2 2 2 2 2 2 1 1 0 0 0 1 1 1 2 2 2 2 3 4 4 3
12 12 13 13 12 9 6 4 3 2 1 0 0 1 2 5 8 10 9 7 4 2 2 1 1 1 0 0 0 0 0 0 1 1 1 1 1 2 2 2 3 4 4
13 13 13 14 15 13 9 6 5 3 1 0 0 0 1 4 8 9 9 8 6 4 3 2 1 1 0 0 0 0 0 1 1 1 1 1 0 1 2 2 2 3 2
13 13 14 15 17 16 12 9 7 5 3 2 1 0 1 3 7 8 9 8 7 6 5 4 4 3 2 2 1 1 1 3 2 2 2 2 1 1 2 3 3 2 3
13 13 14 16 18 17 13 9 7 6 6 6 4 1 1 3 7 8 8 8 8 7 6 6 5 4 4 4 3 2 2 3 2 3 3 3 2 2 2 3 3 3 4

GEFSSE_con_prob3kmehi_288.txt.gz
EHI
0 1 2 2 1 0 0 0 0 0 1 1 1 1 0 0 0 0 0 0 0 1 3 3 2 2 1 1 1 1 1 2 2 3 3 4 6 6 6 4 1 0 0
0 0 1 1 0 0 0 0 0 0 0 1 1 1 0 0 0 0 0 0 0 1 3 2 1 2 2 1 0 0 0 1 1 2 2 3 5 6 6 4 2 1 1
0 0 0 0 0 0 0 0 1 1 0 0 1 1 0 0 0 0 0 0 0 1 2 1 1 2 2 1 0 0 0 0 0 1 1 1 2 5 5 4 2 2 2
0 0 0 0 0 0 0 1 2 2 1 0 0 0 0 0 0 0 0 0 0 0 1 1 1 1 1 0 0 0 0 1 0 0 0 0 1 3 4 4 4 3 4
0 0 0 0 0 0 0 1 2 2 1 0 0 0 0 0 0 0 0 0 0 1 1 1 0 0 0 0 0 1 1 1 0 0 0 0 1 3 4 4 4 4 4
0 0 1 1 1 0 0 1 2 2 1 1 1 0 0 0 0 0 0 0 0 1 1 0 0 0 0 0 1 2 3 3 1 0 0 0 2 4 4 3 3 3 3
0 0 1 2 1 0 1 1 1 1 1 2 1 0 0 0 0 0 0 0 0 1 1 0 0 0 0 1 2 4 6 5 3 1 0 2 5 6 5 4 3 3 3
0 1 2 3 2 2 3 2 2 2 2 2 2 1 1 1 1 1 1 0 0 1 1 1 0 0 1 2 4 6 9 8 5 1 1 3 7 8 7 6 5 4 3
0 1 2 3 4 4 4 4 4 4 4 3 3 4 3 3 3 2 2 1 0 1 1 1 1 1 2 4 5 8 11 11 6 2 1 5 9 11 11 10 8 6 5
0 0 1 2 3 3 3 4 5 5 4 4 5 6 5 4 3 3 2 2 1 1 1 2 2 3 4 5 6 9 12 11 6 2 2 5 11 14 14 12 10 8 7
1 0 0 1 1 1 2 3 4 4 3 3 4 6 6 4 2 1 2 3 4 4 4 5 5 6 6 6 7 10 12 10 5 2 3 6 11 15 15 13 11 10 9
2 1 1 1 1 0 1 3 3 2 3 3 4 5 5 3 1 1 3 5 6 6 7 9 9 8 7 7 9 10 9 7 3 2 4 8 12 14 15 14 12 12 12
2 3 4 4 3 2 1 1 1 1 3 3 3 4 4 3 2 2 4 6 8 8 8 11 11 8 6 8 9 8 5 3 1 2 7 12 14 14 15 14 13 13 12
4 4 5 6 5 3 1 0 0 1 2 2 3 3 3 4 4 5 5 7 9 10 9 11 11 8 8 9 8 5 3 2 1 3 10 18 19 16 14 14 12 11 9
6 5 5 5 5 3 1 1 1 1 1 2 4 5 4 4 6 7 7 8 9 9 9 11 12 11 11 11 9 6 5 5 5 7 12 20 21 18 14 13 11 8 7
7 6 5 4 4 3 2 2 2 1 2 4 5 6 5 5 7 8 10 10 10 9 10 12 14 14 15 14 11 8 7 7 9 10 13 17 19 18 17 14 11 9 8
6 7 6 5 6 7 7 5 3 3 5 7 8 7 6 6 8 9 10 12 13 13 15 15 15 15 16 15 14 11 9 9 12 13 14 15 16 18 20 19 16 15 13
10 10 8 6 7 9 11 9 6 5 7 9 11 10 9 8 9 10 12 14 17 19 18 17 15 14 14 14 13 12 12 13 14 13 13 13 15 18 21 22 23 21 19
17 14 10 8 9 9 11 11 9 8 10 11 13 13 10 9 10 13 15 17 19 19 17 15 15 15 15 12 9 9 11 13 14 13 12 11 13 17 20 21 22 23 24
21 19 14 12 12 11 10 10 9 9 11 13 15 14 11 9 11 15 19 19 18 16 12 11 14 16 16 11 6 5 7 10 13 14 13 11 12 13 16 18 20 22 24
26 27 23 19 17 14 12 11 10 9 10 11 13 14 12 10 11 15 18 19 18 15 11 10 12 14 12 8 5 4 5 9 14 15 15 15 13 11 12 16 20 23 24
32 33 30 26 23 18 14 13 10 8 8 8 10 14 15 14 12 12 14 17 18 17 14 13 14 14 11 6 5 6 6 9 12 13 16 19 16 14 13 15 21 25 25
33 34 32 30 27 21 17 14 10 7 7 6 8 14 18 19 16 13 14 18 20 19 18 17 17 15 11 8 8 8 8 9 10 13 15 17 19 19 17 16 18 22 23
31 33 35 36 33 27 20 15 10 9 8 6 7 12 19 23 22 20 20 22 23 22 20 19 18 16 14 11 11 12 12 11 12 15 15 15 19 21 18 16 16 18 21
28 32 39 44 43 36 26 17 14 13 11 10 11 14 19 25 27 25 26 28 27 24 21 19 19 18 17 15 13 14 14 14 14 16 15 15 18 20 19 18 18 19 21
26 29 40 50 51 44 31 21 17 16 13 14 17 20 23 27 28 28 29 32 31 27 22 19 20 21 21 18 14 13 15 15 14 15 14 15 16 19 21 22 22 21 20

GEFSSE_con_prob3kmehi_294.txt.gz
EHI
0 1 2 1 0 0 0 1 2 2 2 3 3 3 2 1 1 2 2 1 0 0 0 1 2 4 5 6 7 7 7 9 10 8 6 6 8 9 8 5 2 1 1
0 1 1 1 0 0 0 0 1 1 1 2 3 3 3 1 1 1 1 0 0 1 1 1 3 4 5 6 6 6 5 7 9 7 5 6 7 9 7 4 2 2 3
0 0 1 1 0 0 0 0 0 0 0 1 1 2 3 2 1 1 1 1 1 2 2 2 3 3 4 5 4 2 3 4 5 5 4 3 5 6 5 4 4 5 6
0 0 0 0 0 0 0 0 0 0 0 0 0 1 2 1 1 1 2 1 1 2 2 2 3 3 4 3 2 0 1 2 3 3 2 1 2 3 3 4 6 7 6
0 0 0 0 0 0 0 0 0 0 0 0 0 0 0 0 0 1 1 1 1 2 1 1 1 3 4 2 1 0 0 1 2 2 1 0 1 1 2 4 6 7 6
0 0 0 0 0 0 0 0 0 0 0 0 0 0 0 0 0 1 1 0 1 2 1 0 0 1 2 1 0 0 0 0 1 1 0 0 0 1 3 5 7 8 8
0 0 0 1 1 1 1 0 0 0 0 0 0 0 1 1 1 2 1 0 0 0 0 0 0 0 1 0 0 0 0 0 0 0 0 0 0 1 5 8 9 9 9
0 0 0 1 2 2 2 1 1 1 1 1 0 0 1 2 3 3 2 0 0 0 0 0 0 0 1 1 1 2 1 1 0 0 0 0 0 1 5 9 9 8 7
0 0 0 1 1 2 2 2 2 4 4 3 2 1 2 2 3 2 1 1 1 1 0 0 0 0 1 2 3 2 2 2 1 0 0 0 0 1 4 8 7 6 6
0 0 0 0 0 1 1 2 3 4 5 4 4 3 2 2 2 1 1 1 2 2 2 2 3 3 4 4 4 3 2 1 0 0 0 0 1 2 5 7 6 5 6
1 0 0 0 0 0 0 1 1 2 3 3 3 3 2 1 1 1 2 3 4 4 4 6 7 7 6 5 4 3 2 1 0 0 0 2 3 5 7 8 7 6 7
1 0 0 0 0 0 0 1 1 1 1 1 1 1 1 0 0 2 3 4 4 5 5 6 8 7 5 3 1 1 1 1 1 1 1 4 7 9 10 10 8 7 8
1 1 1 1 1 0 1 2 2 1 0 0 0 0 1 1 0 1 2 3 3 3 2 2 3 3 2 1 0 0 0 1 1 1 2 7 10 12 13 12 9 7 7
1 2 3 3 2 1 1 2 2 1 0 0 0 0 1 1 0 0 1 2 1 1 0 0 0 0 0 0 0 1 1 1 1 1 3 8 11 13 13 11 8 7 7
2 3 4 5 3 1 0 1 1 0 0 0 0 0 1 1 0 0 0 0 0 0 0 0 1 0 0 0 1 2 3 3 2 2 4 9 13 14 12 9 8 8 8
1 2 4 4 2 1 0 0 0 0 0 0 0 0 0 0 0 0 0 0 0 0 0 0 0 0 0 0 1 3 3 3 4 5 6 7 11 15 14 11 11 10 9
1 1 2 2 1 0 0 1 1 0 0 0 0 0 0 0 0 0 0 0 0 0 0 0 0 0 0 0 1 1 2 2 3 5 6 5 6 12 16 17 16 13 12
2 1 0 1 1 1 0 0 1 1 1 0 0 0 0 0 0 0 0 0 0 0 0 0 0 0 0 0 0 0 0 1 2 3 4 3 3 6 11 17 19 18 16
2 1 0 1 2 2 0 0 1 2 2 1 0 0 0 0 0 0 0 0 0 0 0 0 0 0 0 0 0 0 0 0 1 2 3 3 3 3 6 11 16 18 19
2 1 0 1 3 2 1 1 0 1 1 1 0 0 0 0 0 0 0 0 0 0 0 0 0 0 0 0 0 0 0 0 0 1 2 2 3 3 4 6 9 13 15
8 6 4 3 3 3 3 3 1 0 0 0 0 0 0 1 1 2 1 2 2 1 0 0 0 0 0 0 0 0 0 0 0 0 1 1 1 2 3 3 3 5 6
16 13 9 6 5 5 5 4 2 1 0 0 0 0 1 3 3 3 3 4 4 2 0 0 0 0 0 0 0 0 0 0 0 0 0 0 0 1 2 2 1 1 1
21 18 13 9 7 6 6 4 3 1 1 1 1 1 2 4 4 4 4 5 6 4 1 0 0 1 1 1 1 1 1 0 0 0 0 0 1 2 2 2 2 1 0
23 21 15 11 9 8 7 6 5 4 3 3 2 1 3 4 4 3 4 6 6 5 2 0 1 3 4 4 3 3 3 2 2 1 1 1 2 3 3 3 3 2 1
26 23 18 13 11 11 11 10 9 7 6 4 2 2 3 3 3 3 5 7 7 6 4 3 3 4 5 6 6 5 5 5 5 4 4 4 4 4 4 3 3 3 3
27 26 22 17 13 13 13 12 9 8 6 5 4 3 3 3 3 4 7 9 9 8 6 6 5 4 5 7 7 6 6 6 6 6 5 5 5 5 5 3 3 3 3

GEFSSE_con_prob3kmehi_300.txt.gz
EHI
3 3 4 4 4 3 3 3 4 5 6 6 6 5 4 5 6 6 6 6 6 4 5 9 12 11 10 8 5 4 4 4 4 5 6 6 5 5 5 5 5 5 5
3 3 3 4 3 3 3 3 3 4 5 6 5 4 4 5 5 5 5 5 5 4 5 7 9 9 8 6 5 4 4 4 4 5 6 6 6 6 6 6 5 5 5
3 3 3 3 3 3 3 3 3 3 4 5 4 3 3 4 4 4 4 4 4 3 4 5 7 7 6 5 5 5 5 4 5 6 6 5 5 6 6 6 6 5 6
3 3 3 3 3 3 3 3 3 3 3 4 3 3 3 3 3 3 3 3 3 4 4 4 5 5 4 4 5 6 5 5 6 7 6 4 4 5 5 6 6 6 6
3 3 3 3 3 3 3 3 3 3 3 3 3 3 3 3 3 3 3 3 4 5 4 3 3 3 3 3 4 5 5 4 5 6 4 3 3 4 4 5 6 5 5
3 3 3 3 3 3 3 3 3 3 3 3 3 3 3 3 3 3 3 3 4 5 5 4 3 3 3 3 4 4 4 3 4 4 3 3 3 4 4 4 4 4 4
3 3 3 3 3 3 3 3 3 3 3 3 3 3 3 3 3 3 3 3 3 4 5 4 3 3 3 3 3 4 3 3 3 3 3 3 4 5 4 3 4 4 4
3 3 3 3 3 3 3 3 3 3 3 3 3 3 3 3 3 3 3 3 3 4 5 5 4 4 3 3 3 3 3 3 3 3 3 4 5 5 4 4 5 5 5
3 3 3 3 3 3 3 3 3 3 3 3 3 3 3 3 4 4 4 4 4 4 5 5 5 4 4 3 3 3 3 3 3 3 3 4 6 6 4 4 4 4 5
3 3 3 3 3 3 3 3 3 3 3 3 3 3 3 4 4 4 5 6 5 4 5 4 4 4 3 3 3 3 3 3 3 3 3 4 5 5 4 4 3 3 4
3 3 3 3 3 3 3 3 3 3 3 3 3 3 3 3 4 4 5 7 6 4 4 3 3 3 3 3 3 3 3 3 3 3 3 3 4 4 3 3 3 3 3
3 3 3 3 3 3 3 3 3 3 3 3 3 3 3 3 3 3 5 6 5 3 2 2 2 2 3 3 3 3 2 2 3 3 3 3 4 3 3 3 3 3 4
3 3 3 3 3 3 3 3 3 3 3 3 3 3 3 3 3 3 3 3 2 1 1 1 1 1 1 3 3 3 1 1 2 3 3 4 4 4 3 3 4 4 5
3 3 3 3 3 3 3 3 3 3 3 3 3 3 3 3 2 2 1 1 0 0 0 0 0 0 1 2 3 2 1 0 1 2 3 4 5 5 4 4 5 6 6
3 3 3 3 3 3 3 3 3 3 3 3 3 3 3 1 1 1 0 0 0 0 0 0 0 0 0 1 2 2 0 0 0 1 3 5 7 7 5 5 6 6 6
3 3 3 3 3 3 3 3 3 3 3 3 3 3 2 1 0 0 0 0 0 1 1 1 0 0 0 1 2 2 1 0 0 1 3 5 7 7 6 6 7 7 6
3 3 3 3 3 3 3 3 3 3 3 3 1 1 2 1 0 0 0 0 1 1 1 1 0 0 1 1 1 1 2 1 1 1 3 5 6 6 6 8 10 10 9
3 3 3 3 3 3 3 3 3 3 3 3 1 1 2 2 1 0 0 0 0 0 0 0 0 0 0 0 0 1 2 2 1 1 2 4 5 5 5 8 12 13 14
3 3 3 3 3 3 3 3 3 3 3 3 2 2 3 3 1 0 0 0 0 0 0 0 0 0 0 0 0 0 1 2 1 1 2 3 4 4 4 6 9 12 13
3 3 3 3 3 3 3 3 2 1 1 2 2 2 3 3 2 0 0 0 0 0 0 0 0 0 0 0 0 0 0 0 1 1 2 3 3 3 3 4 5 6 8
3 3 3 3 3 2 2 2 1 0 0 1 1 2 3 3 1 0 0 0 0 0 0 0 0 0 0 0 0 0 0 0 0 1 2 3 3 3 3 3 3 3 4
3 3 3 3 3 1 0 1 1 1 0 0 0 1 3 2 1 0 1 2 2 1 1 1 1 0 0 0 1 2 1 1 0 0 1 2 3 3 3 3 3 3 3
3 3 3 3 2 1 1 1 3 3 2 2 1 2 3 3 1 2 3 4 4 3 2 2 2 1 0 1 2 3 3 2 1 1 1 1 2 3 3 3 3 3 3
5 5 4 2 1 1 2 3 5 7 6 4 4 4 3 2 2 2 3 3 3 2 2 1 2 1 1 2 3 3 3 3 3 2 2 1 1 3 3 3 4 4 4
7 8 6 3 1 2 3 4 6 8 7 6 6 6 4 2 2 2 2 1 1 1 1 1 1 2 2 3 3 3 3 3 3 3 3 1 1 3 3 4 5 5 6
9 10 8 5 2 2 4 5 6 8 7 6 6 6 4 2 2 2 2 2 1 1 2 1 0 1 3 3 3 3 3 3 3 3 3 2 2 3 3 4 5 6 6

GEFSSE_con_prob3kmehi_306.txt.gz
EHI
0 0 1 1 1 0 0 1 2 2 2 2 2 1 0 0 0 1 1 1 1 1 0 2 4 4 3 3 2 2 2 2 1 2 3 4 3 2 1 0 0 1 1
0 0 1 1 1 0 0 0 1 1 1 1 1 0 0 0 1 1 2 2 1 0 0 2 3 3 3 2 1 1 2 2 2 3 4 4 3 2 1 0 0 0 1
0 0 0 0 0 0 0 0 0 0 0 1 1 0 0 0 1 2 3 3 2 0 0 1 2 2 2 1 0 1 2 2 2 3 4 3 2 1 1 0 0 0 0
0 0 0 0 0 0 0 0 0 0 0 1 1 0 0 1 2 3 4 3 1 0 0 0 1 1 1 0 0 1 2 2 2 2 2 1 0 0 0 1 1 0 0
0 0 0 0 0 0 0 0 0 0 0 0 0 0 0 1 3 4 4 3 1 0 0 0 0 0 0 0 0 0 1 3 2 1 0 0 0 0 1 1 1 0 0
0 0 0 0 0 0 0 0 0 0 0 0 0 0 0 1 3 4 4 3 2 1 0 0 0 0 0 0 0 0 2 3 2 0 0 0 0 1 1 1 1 0 0
0 0 0 0 0 0 0 0 0 0 0 0 0 0 0 1 2 3 2 2 2 1 0 0 0 0 0 0 0 1 2 3 1 0 0 0 0 0 0 0 1 0 0
0 0 0 0 0 0 0 0 0 0 0 0 0 0 0 1 1 1 1 1 1 0 0 0 0 0 0 0 1 1 2 2 1 0 0 0 0 0 0 0 0 0 0
0 0 0 0 0 0 1 0 0 0 0 0 1 0 0 1 2 2 2 1 0 1 1 1 0 0 0 0 1 1 1 1 0 0 0 0 0 0 0 0 0 0 0
0 0 0 0 0 0 0 0 0 0 0 0 1 1 1 1 3 3 3 2 1 1 1 1 0 0 0 1 2 1 0 0 0 0 0 0 0 0 0 0 0 0 0
0 0 0 0 0 0 0 0 0 0 0 0 1 1 2 3 3 3 2 2 2 1 0 0 0 0 0 2 2 1 0 0 0 0 0 0 0 1 1 0 0 0 0
0 0 0 0 0 0 0 0 0 0 0 0 0 1 1 3 3 2 1 1 1 1 0 0 0 0 0 1 1 1 0 0 0 0 0 1 2 2 1 0 0 0 0
1 1 0 0 0 0 0 0 0 0 0 0 0 0 0 1 1 1 1 1 0 0 0 0 0 0 0 0 0 0 0 1 1 1 2 5 5 3 2 0 0 0 0
2 1 0 0 0 0 0 0 0 0 0 0 0 0 0 0 0 1 2 1 0 0 0 0 0 0 0 0 0 0 0 1 2 2 4 7 7 4 2 1 1 1 1
1 1 0 0 0 0 0 0 0 0 0 0 0 0 0 0 0 0 1 0 0 0 0 0 0 0 0 0 0 0 0 1 2 2 4 7 7 4 3 3 2 3 3
0 0 0 0 0 0 0 0 0 0 0 0 0 0 0 0 0 0 0 0 0 0 0 0 0 0 0 0 0 0 0 0 1 1 2 4 6 5 4 4 4 4 5
0 0 0 0 0 0 0 0 0 0 0 0 0 0 0 0 0 0 0 1 1 0 0 1 1 0 0 0 0 0 0 0 0 0 0 1 3 5 6 6 6 7 7
0 1 1 0 0 1 1 1 1 0 0 0 0 0 0 0 0 0 0 1 1 0 0 1 1 0 0 0 0 0 0 0 0 0 0 0 1 2 4 7 9 9 8
1 2 2 2 1 2 2 2 1 0 0 0 0 0 0 0 0 0 0 1 1 0 0 1 1 0 0 0 0 0 0 0 0 0 0 0 1 0 2 5 8 9 8
1 3 4 4 4 3 2 2 1 0 0 0 0 0 0 0 1 1 0 0 1 0 0 0 0 0 1 1 1 1 0 0 0 1 1 1 2 1 1 3 5 7 7
3 5 6 6 6 4 3 2 2 1 1 0 0 0 0 1 2 2 2 1 1 1 1 1 0 1 2 2 3 3 2 1 1 2 2 2 2 2 2 3 4 5 6
5 8 9 8 8 6 5 5 4 3 2 0 0 0 0 1 2 3 3 3 2 2 2 2 2 3 3 4 4 4 3 2 2 3 3 2 2 3 4 4 5 6 7
6 9 11 11 11 10 9 8 7 6 2 0 0 1 1 1 1 2 3 3 3 3 3 4 5 6 6 5 5 5 5 4 4 5 4 3 4 5 5 6 7 7 7
5 6 10 13 14 13 12 12 10 6 2 0 1 2 2 1 1 2 3 3 4 4 4 5 8 9 9 7 6 6 6 6 6 6 5 4 5 6 5 5 7 8 7
2 3 7 13 16 15 15 14 10 6 3 2 3 4 3 3 2 2 3 5 5 5 6 8 10 11 10 9 8 7 7 6 6 5 4 5 6 6 5 4 7 8 8
1 1 6 13 16 16 15 13 9 6 5 4 5 5 4 3 3 3 4 6 7 6 7 10 12 11 11 11 10 9 7 6 5 4 4 5 6 7 5 5 6 9 8

GEFSSE_con_prob3kmehi_312.txt.gz
EHI
2 1 1 0 0 0 0 0 0 0 0 0 0 0 0 1 0 0 0 1 4 7 5 5 7 7 5 4 4 4 5 6 7 6 5 5 3 1 1 0 0 1 2
2 2 1 0 0 0 0 0 0 0 0 0 0 0 0 1 0 0 0 0 2 5 5 4 6 6 4 3 3 4 4 5 6 5 4 4 3 2 2 1 0 1 2
1 1 0 0 0 0 0 0 0 0 0 0 0 0 0 0 0 0 0 0 1 3 4 4 4 4 2 2 3 3 3 4 5 4 3 2 2 3 3 2 1 1 2
1 0 0 0 0 0 0 0 0 0 1 0 0 0 0 0 0 0 0 0 1 3 4 3 3 2 1 1 2 2 1 2 3 3 2 1 1 3 3 2 1 1 1
1 1 0 0 0 0 0 0 0 0 0 0 0 0 0 0 0 0 0 0 1 3 4 3 2 1 0 0 1 1 0 1 2 2 1 0 2 5 5 3 1 0 1
1 1 1 1 0 0 0 0 0 0 0 0 0 0 0 0 1 1 1 1 1 2 4 3 3 2 1 1 0 1 1 1 1 1 0 0 4 8 8 5 3 2 2
2 2 2 1 0 0 0 1 1 1 0 0 0 0 0 1 2 3 3 3 2 3 4 4 5 4 3 2 2 2 2 2 1 0 0 2 6 10 11 8 6 5 4
1 1 1 1 1 1 1 2 2 1 0 0 1 1 1 3 6 7 6 4 3 2 3 5 5 4 3 3 3 4 4 3 2 1 1 3 6 10 11 9 8 6 5
0 0 0 1 2 3 2 2 2 2 1 1 2 3 3 5 8 9 8 5 3 2 3 5 5 4 4 5 5 5 5 5 3 1 2 3 5 7 9 8 7 6 5
1 1 1 0 1 2 2 2 2 2 1 2 4 5 6 7 9 9 7 5 4 4 5 6 6 6 7 9 9 9 8 6 2 1 3 5 6 7 7 7 6 4 4
3 3 2 1 0 0 1 2 2 1 1 3 6 6 7 8 8 7 5 4 5 6 7 7 8 9 10 12 13 14 11 5 1 1 4 7 9 8 7 7 6 5 4
4 3 2 1 0 0 1 1 1 1 1 3 5 5 5 5 4 3 3 4 5 6 7 9 11 11 10 10 13 15 11 6 3 3 6 10 11 8 8 8 9 8 6
3 2 1 1 0 0 1 1 1 1 3 3 4 4 3 3 2 1 1 3 6 8 9 11 12 10 8 8 9 11 10 9 7 6 8 13 12 10 10 10 11 10 8
2 2 2 3 2 1 2 2 1 1 3 4 5 4 3 3 2 2 2 4 7 9 11 12 12 10 8 8 8 8 10 11 10 10 11 15 16 14 12 12 11 10 10
2 3 4 5 5 4 5 5 2 2 3 4 5 5 4 2 2 3 4 4 6 9 10 11 11 11 10 10 8 8 10 11 10 11 13 17 19 18 16 14 12 12 11
4 4 4 5 7 7 6 4 2 2 3 4 5 6 4 4 5 7 6 5 6 7 8 9 8 8 10 10 9 9 9 8 8 10 13 17 20 20 19 18 17 16 15
7 6 5 5 7 8 6 3 2 1 2 5 8 9 7 7 10 10 8 7 7 7 8 8 6 5 6 6 6 7 7 7 7 8 12 16 19 19 20 21 21 21 19
11 10 8 7 9 10 9 6 4 2 2 6 10 12 10 9 11 11 10 9 9 9 8 7 6 5 3 3 4 6 7 8 8 8 11 16 19 18 18 21 23 24 23
15 14 12 11 12 12 12 11 7 4 4 6 9 9 9 10 11 11 10 10 10 10 9 8 7 6 6 5 5 6 8 9 9 9 10 14 17 18 17 19 22 25 24
22 20 16 14 15 15 14 13 10 7 6 7 7 7 8 9 10 9 9 10 10 10 10 9 9 9 10 8 7 8 9 10 10 10 9 10 14 16 16 18 22 24 24
29 28 24 20 20 20 18 16 14 11 9 7 7 8 10 10 9 7 8 9 9 10 11 11 11 11 12 11 9 9 10 8 8 9 10 10 11 14 17 19 22 25 26
36 34 31 29 27 23 20 18 16 15 12 8 9 14 16 14 12 10 11 11 10 10 12 13 13 12 12 11 10 10 10 8 7 7 9 11 12 15 17 19 22 25 26
39 37 37 36 32 26 22 18 16 17 14 10 12 17 19 18 17 16 17 16 13 12 13 15 15 13 12 11 11 10 9 9 9 9 9 11 14 15 15 15 19 23 24
37 38 42 43 38 30 23 18 16 15 12 10 13 17 19 19 19 20 20 20 17 13 12 14 14 13 12 11 11 11 10 11 13 12 11 10 13 13 11 11 15 20 22
33 38 45 48 44 35 25 21 18 14 11 10 12 16 19 20 20 21 20 20 17 12 10 11 12 12 12 12 12 13 12 13 15 15 12 11 11 11 10 9 11 16 19
32 37 45 51 49 38 27 22 20 17 12 11 12 15 17 19 21 21 19 18 15 12 11 10 10 11 12 12 12 13 14 15 16 15 13 11 11 11 10 9 9 12 17

GEFSSE_con_prob3kmehi_318.txt.gz
EHI
0 0 0 0 0 0 0 0 0 0 0 0 1 3 2 2 5 7 6 4 3 3 2 2 4 4 3 1 1 2 3 4 4 5 4 2 1 0 1 0 0 0 1
0 0 0 0 0 0 0 0 0 0 0 0 0 1 1 1 3 5 5 5 5 3 1 2 4 4 3 1 0 1 2 2 3 5 4 2 0 1 2 1 1 1 1
0 0 0 0 0 0 0 0 0 0 0 0 0 1 1 1 2 4 6 7 7 4 1 2 3 4 3 2 1 1 1 0 1 3 2 1 0 2 4 3 2 2 2
0 0 0 0 0 0 0 0 0 0 0 0 1 2 3 3 4 5 6 9 9 5 3 2 3 3 4 4 3 2 1 0 0 1 1 0 0 2 4 4 3 2 1
0 1 1 1 0 0 0 0 0 0 0 0 1 3 4 5 5 5 7 10 10 7 4 3 3 3 3 4 4 3 2 1 0 0 0 0 0 2 3 4 3 2 2
0 1 2 2 1 0 0 1 0 0 0 0 0 2 4 5 5 6 8 9 9 7 5 4 5 4 2 2 2 2 2 2 0 0 0 0 0 2 4 4 3 4 5
0 0 1 1 1 0 1 1 0 0 0 0 0 1 2 4 5 6 8 9 7 6 5 5 6 5 2 1 0 1 1 1 0 0 0 0 2 4 4 3 4 5 6
0 0 0 0 0 0 1 0 0 0 1 2 1 2 3 3 5 6 7 8 7 5 5 6 7 5 3 1 0 0 0 0 0 0 0 1 3 5 5 4 4 5 5
0 0 0 0 0 0 1 1 1 0 1 2 2 2 3 4 4 5 5 6 7 6 6 7 7 6 4 2 1 1 1 0 0 0 0 1 4 7 8 7 5 4 4
0 0 0 0 0 0 0 2 2 2 2 2 3 3 3 3 2 2 3 5 7 6 5 7 8 8 7 6 6 5 3 1 1 1 1 3 5 8 9 8 6 4 4
0 0 0 0 0 0 0 1 3 3 2 2 3 4 3 1 0 0 1 4 6 5 5 7 9 10 10 9 10 9 5 3 3 3 3 6 9 10 10 8 5 4 3
0 0 0 0 0 0 0 0 1 1 1 1 1 2 1 0 0 0 1 3 5 4 5 7 7 8 8 8 8 8 5 4 4 3 4 9 13 12 10 7 5 4 3
0 0 0 0 0 0 0 0 0 0 0 0 0 0 0 0 0 0 1 3 3 3 3 4 4 4 5 5 4 3 3 3 3 2 4 12 15 14 11 8 6 4 4
1 0 0 0 0 0 0 0 0 0 0 0 0 0 0 0 0 0 1 2 2 1 1 1 1 1 3 4 3 2 2 3 3 1 5 12 16 15 13 11 8 6 5
1 0 0 0 0 0 0 0 0 0 0 0 0 0 0 0 0 1 1 1 1 0 0 0 1 1 3 4 3 3 3 3 3 3 5 10 15 17 17 15 12 9 7
1 0 1 1 0 0 1 2 1 0 0 1 0 0 1 1 2 1 1 0 0 0 1 1 2 3 3 3 3 3 3 4 4 3 4 7 13 18 19 17 16 13 10
0 1 2 2 1 1 3 4 3 1 0 0 0 1 2 3 3 2 2 1 1 1 1 2 3 3 2 2 2 2 3 4 4 4 3 5 10 15 18 17 16 15 14
1 2 3 3 2 2 3 4 3 1 0 0 0 1 2 3 3 4 3 3 3 2 1 1 2 2 1 1 1 1 2 3 3 3 3 3 6 9 13 16 16 16 16
4 4 4 4 4 4 4 4 3 1 0 0 0 1 2 3 4 4 5 5 5 3 2 1 1 2 2 1 1 2 2 1 1 1 1 2 3 5 8 11 15 17 17
9 7 6 6 7 7 6 5 3 1 0 0 0 1 2 3 3 4 4 5 5 4 3 2 2 3 2 2 2 3 2 1 0 0 0 1 2 3 4 6 9 13 15
14 12 10 10 9 8 8 6 4 1 0 0 0 1 2 3 3 3 3 4 3 3 3 4 4 3 2 2 3 3 2 1 0 0 0 1 2 3 4 3 5 7 8
17 15 13 11 9 8 7 6 5 3 1 1 1 1 2 3 3 3 3 3 2 2 4 6 6 5 4 4 5 3 1 0 0 0 0 1 2 3 4 5 6 6 6
18 15 13 10 8 7 6 6 6 5 4 2 1 1 1 3 3 3 3 2 1 1 3 6 8 8 7 6 5 4 2 1 1 2 1 0 1 1 3 5 7 9 9
20 17 13 11 10 8 8 7 7 6 5 3 1 1 2 3 4 4 3 2 1 1 3 6 8 10 9 7 5 4 3 3 3 3 2 1 1 1 2 4 7 9 10
25 22 18 14 12 11 10 9 7 6 5 3 2 3 5 6 5 5 4 4 3 3 4 6 8 9 9 8 6 5 4 3 3 3 3 3 3 3 3 3 5 7 8
29 26 21 15 13 13 13 10 7 6 6 5 4 6 7 7 6 6 6 5 5 5 5 5 7 9 10 9 7 6 5 4 3 3 3 3 4 4 3 2 3 5 6

GEFSSE_con_prob3kmehi_324.txt.gz
EHI
0 0 0 0 0 0 0 0 0 0 0 1 2 3 3 2 2 1 1 3 3 3 2 1 1 2 2 1 0 0 1 1 1 0 0 0 1 2 2 1 0 0 0
0 0 0 0 0 0 0 0 0 0 0 0 1 2 2 1 1 1 2 3 3 2 1 1 0 1 1 0 0 0 0 1 0 0 0 0 1 2 2 1 0 0 0
0 0 0 0 0 0 0 0 0 0 0 0 1 1 1 0 0 0 1 2 2 1 0 0 0 0 0 0 0 0 0 1 0 0 0 0 0 1 1 0 0 0 0
0 0 0 0 0 0 0 0 0 0 0 0 0 0 1 1 1 1 1 1 1 1 0 0 0 0 0 0 0 0 0 1 0 0 0 0 0 0 0 0 0 0 0
0 0 0 0 0 0 0 0 0 0 0 0 0 1 1 2 2 2 2 1 1 0 0 0 0 0 0 0 0 0 0 1 0 0 0 0 0 0 0 1 1 1 0
0 0 0 0 0 1 1 0 0 0 0 0 1 2 2 2 3 3 3 2 1 1 1 0 0 0 0 0 0 0 0 1 0 0 0 0 0 0 0 1 2 2 1
0 0 0 0 1 3 3 1 0 0 0 0 1 2 2 1 2 3 2 2 2 3 3 1 0 0 0 0 0 0 0 1 1 0 0 0 0 0 0 1 2 2 1
0 0 0 0 1 4 3 1 0 0 0 0 0 1 1 1 2 2 2 2 4 5 4 1 0 0 0 0 0 1 1 1 1 0 0 0 0 1 1 1 2 2 2
0 0 0 0 1 2 1 1 2 1 0 0 1 1 1 2 2 3 3 4 5 4 3 1 0 0 0 1 1 2 2 1 1 0 0 0 1 2 2 2 3 3 3
0 0 0 0 0 0 1 1 2 1 1 1 1 1 1 2 2 3 4 4 3 2 2 2 1 1 1 2 3 3 2 1 0 0 0 0 1 3 3 3 3 3 3
0 0 0 0 0 0 0 1 1 1 0 0 1 1 1 1 1 1 1 1 1 1 2 3 3 2 2 3 3 2 2 1 0 0 0 0 2 4 5 5 4 3 3
0 0 0 0 0 0 0 0 0 0 0 0 0 0 0 0 0 0 0 0 0 1 2 2 3 3 1 1 1 1 1 0 0 0 0 1 3 6 7 6 4 3 3
0 0 0 0 0 0 0 0 0 0 0 0 0 0 0 0 0 0 0 1 0 0 1 1 1 1 0 0 0 0 0 0 0 0 0 1 3 6 8 7 6 4 4
0 0 0 0 0 0 0 0 0 0 0 0 0 0 0 0 0 0 0 0 0 0 0 0 0 0 0 0 0 0 0 0 0 0 1 2 4 6 8 8 6 5 5
0 0 0 0 0 0 0 0 0 0 0 0 0 0 0 0 0 0 0 0 0 0 0 0 0 0 0 0 0 1 1 1 1 0 1 2 4 6 8 8 7 5 5
0 0 0 0 0 1 0 0 0 0 0 0 0 0 0 0 0 0 0 0 0 0 0 0 0 0 0 1 1 2 2 2 1 0 1 2 3 5 8 8 7 6 6
0 0 0 1 1 1 0 0 0 0 0 0 0 0 0 0 0 0 0 0 0 0 0 0 0 0 0 1 2 2 3 3 2 0 0 1 1 3 6 7 7 7 7
0 0 1 2 2 1 0 0 0 0 0 0 0 0 0 0 0 0 0 1 1 1 0 0 0 0 0 1 1 2 3 3 2 1 0 0 0 1 3 5 6 7 7
0 0 1 2 2 1 0 0 0 0 0 0 0 0 0 0 0 0 1 2 2 1 0 0 0 0 0 0 0 2 3 3 2 1 0 0 0 0 1 2 5 6 7
0 1 2 2 1 0 0 0 0 0 0 0 0 0 0 0 0 0 1 2 2 1 0 0 0 0 0 0 1 1 2 1 1 0 0 0 0 0 0 1 2 4 6
0 1 2 1 0 0 0 0 0 0 0 0 0 0 0 0 0 0 0 1 1 0 0 0 1 1 0 1 2 1 1 0 0 0 0 0 0 0 0 0 1 2 3
1 1 1 0 0 0 1 1 1 0 0 0 0 0 0 0 0 0 0 0 0 0 0 0 1 2 2 2 3 2 1 0 0 0 0 0 0 0 0 0 0 0 1
1 1 1 0 0 1 2 3 3 2 2 2 2 1 0 0 0 0 0 0 0 0 0 0 1 3 4 4 3 3 2 1 1 0 0 0 0 0 0 0 0 0 0
2 1 0 0 0 1 3 5 5 5 5 4 4 4 2 0 0 0 0 0 0 0 0 0 0 2 5 5 4 4 4 3 2 1 1 1 1 1 0 0 0 0 0
3 1 0 0 0 1 4 6 6 6 6 6 6 6 4 2 0 0 0 0 0 0 0 0 0 2 4 5 5 4 4 4 3 3 2 2 2 1 0 0 0 0 0
3 1 0 0 0 2 5 6 6 6 6 6 7 8 7 4 1 0 0 0 1 1 1 0 0 2 4 4 4 4 4 4 3 3 3 3 2 1 0 0 0 0 0